Location: *
(49.8044°N, 4.0558°E)
Time: 10:01:40
(UTC+00:00)

Cosmos 1726 Rocket - Pass Details

Date: 09 April 2020
Orbit: 602 x 631 km, 82.5° (Epoch: 06 June)

Event Time Altitude Azimuth Distance (km) Brightness Sun altitude
Rises 18:56:05 0° 172° (S) 2,886 6.7 -5.1°
Reaches altitude 10° 18:58:20 10° 167° (SSE) 1,990 5.9 -5.4°
Maximum altitude 19:02:34 48° 94° (E) 828 3.8 -6.1°
Drops below altitude 10° 19:06:52 10° 20° (NNE) 2,019 6.2 -6.7°
Sets 19:09:11 0° 15° (NNE) 2,934 7.1 -7.1°
